Location: ?????
(55.8833°N, 37.6500°E)
Time: 06:16:52
(UTC+00:00)

ERS-1 Rocket - Pass Details

Date: 27 February 2020
Orbit: 752 x 759 km, 98.5° (Epoch: 09 April)

Event Time Altitude Azimuth Distance (km) Brightness Sun altitude
Exits shadow 17:14:06 23° 52° (NE) 1,585 4.3 -19.7°
Drops below altitude 10° 17:17:56 10° 3° (N) 2,304 5.6 -20.2°
Sets 17:20:38 0° 349° (N) 3,233 6.6 -20.6°
